Other Public Products
Issued by NWS Grand Forks, ND

Home | Current Version | Previous Version | Text Only | Print | Product List | Glossary Off
Versions: 1 2 3 4 5 6 7 8 9 10 11 12 13 14 15 16 17 18 19 20 21 22 23 24 25 26 27 28 29 30 31 32 33 34 35 36 37 38 39 40 41 42 43 44 45 46 47 48 49 50

000
FPUS83 KFGF 162010
OPUFGF
PRAIRIE TO PINES WEATHER ROUNDUP
NATIONAL WEATHER SERVICE EASTERN NORTH DAKOTA/GRAND FORKS ND
200 PM CST SAT DEC 16 2017

 **SATELLITE DATA USED TO AUGMENT SKY COVER AT AUTOMATED STATIONS**
 *****  WEATHER ACROSS EASTERN NORTH DAKOTA  *****

CITY           SKY/WX    TMP DP  RH WIND       PRES   REMARKS
GRAND FORKS    PTSUNNY   30  26  85 NW7       29.90R WCI  23
GRND FORKS AFB FAIR      31  25  77 NW10      29.89R WCI  23
GRND FORKS NWS   N/A     28 N/A N/A NW6         N/A  WCI  22
BUXTON         NOT AVBL
DEVILS LAKE    FAIR      31  26  82 NW7       29.90R WCI  24
FARGO          CLOUDY    32  27  81 NW6       29.92R
WAHPETON ARPT  CLOUDY    30  27  86 CALM      29.93R
$$

 *****  WEATHER ACROSS CENTRAL AND WESTERN NORTH DAKOTA  *****

CITY           SKY/WX    TMP DP  RH WIND       PRES   REMARKS
JAMESTOWN      CLOUDY    38  31  76 N16       29.90R
BISMARCK       PTSUNNY   40  32  73 NW10      29.94S
MINOT          FAIR      41  27  57 W10       29.89S
MINOT AFB      FAIR      38  26  61 W10       29.88S
GARRISON         N/A     37  29  72 W10       29.91R
WILLISTON      FAIR      34  23  64 W12       29.95S
DICKINSON      FAIR      34  24  67 NW12      29.92S
HETTINGER      CLOUDY    35  24  64 NW9       29.96R
$$

 *****  OTHER OBSERVATIONS NORTHEAST NORTH DAKOTA  *****

CITY           SKY/WX    TMP DP  RH WIND       PRES   REMARKS
WALHALLA       FAIR      25  25 100 NW7       29.88S WCI  17
LANGDON        FAIR      28  25  86 W10       29.86S WCI  19
CAVALIER       FAIR      25  23  93 CALM      29.88S
GRAFTON        CLOUDY    25  23  93 N5        29.91S WCI  19
CANDO          FAIR      32  30  93 W9        29.90S WCI  24
FORT TOTTEN      N/A     33  27  77 N3        29.95S
ROLLA          FAIR      32  27  80 W8        29.86S WCI  25
RUGBY          MOCLDY    37  30  75 VRB5      29.89R
 ***** THE ABOVE OBSERVATIONS ARE NON NWS ARE NOT QUALITY
        CONTROLLED AND MAY MIS-REPORT RAIN FOR SNOW...
$$

 *****  OTHER OBSERVATIONS SOUTHEAST NORTH DAKOTA *****

CITY           SKY/WX    TMP DP  RH WIND       PRES   REMARKS
COOPERSTOWN    MOCLDY    34  30  86 N15       29.89S WCI  24
VALLEY CITY    MOCLDY    37  37 100 N10G17    29.92R
OAKES            N/A     39  34  81 NW7       29.92R
GWINNER          N/A     41  34  75 NW8       29.91R
SHEYENNE NWR     N/A     39  34  82 NW3       29.95S
BUFFALO        NOT AVBL
WYNDMERE       NOT AVBL
 ***** THE ABOVE OBSERVATIONS ARE NON NWS ARE NOT QUALITY
       CONTROLLED AND MAY MIS-REPORT RAIN FOR SNOW...
$$

  *****  WEATHER ACROSS NORTHERN MINNESOTA  *****

CITY           SKY/WX    TMP DP  RH WIND       PRES   REMARKS
FLAG ISLAND    LGT SNOW   9   5  85 E5        29.92R VSB 1   WCI   0
WARROAD        LGT SNOW  12   9  85 E6        29.90S WCI   3
ROSEAU         CLOUDY    16  10  79 CALM      29.89S
HALLOCK        CLOUDY    21  19  93 SW3       29.90R
THF RVR FALLS  CLOUDY    25  23  92 SW8       29.89S WCI  16
HALSTAD        NOT AVBL
FOSSTON        CLOUDY    25  21  86 SW8       29.89R FOG     WCI  16
BAUDETTE       CLOUDY     9   6  88 SE9       29.91R FOG     WCI  -4
WASKISH        CLOUDY    18  16  93 CALM      29.90R
CROOKSTON      CLOUDY    27  23  86 W9        29.91S WCI  17
$$
  *****  WEATHER ACROSS CENTRAL AND WEST MINNESOTA  *****

CITY           SKY/WX    TMP DP  RH WIND       PRES   REMARKS
BEMIDJI        CLOUDY    22  17  81 SE7       29.89R WCI  13
PARK RAPIDS    CLOUDY    23  18  81 SE7       29.89R WCI  15
WADENA         CLOUDY    25  19  80 S3        29.90R
DETROIT LAKES  CLOUDY    28  27  93 SW5       29.91R WCI  23
MOORHEAD       CLOUDY    28  25  86 CALM      29.93R
FERGUS FALLS   CLOUDY    28  25  86 CALM      29.94R
ELBOW LAKE     CLOUDY    28  25  88 CALM      29.92R FOG
MORRIS MN      FAIR      32  28  86 CALM      29.91R
STAPLES        CLOUDY    23  18  80 CALM      29.91R
WHEATON        CLOUDY    34  28  80 CALM      29.94R
$$
  *****  WEATHER ELSEWHERE ACROSS MINNESOTA  *****

CITY           SKY/WX    TMP DP  RH WIND       PRES   REMARKS
DULUTH         CLOUDY    19  14  81 E15       29.93S WCI   5
INTRNTL FALLS  CLOUDY     8   2  76 E8        29.94S HAZE    WCI  -4
ELY            FLURRIES  16  12  86 E6        29.94F WCI   7
CLOQUET        CLOUDY    19  10  68 E10       29.93S WCI   8
BRAINERD       CLOUDY    25  18  74 E3        29.92R
HIBBING        CLOUDY    19  15  84 SE9       29.93R WCI   8
ALEXANDRIA     CLOUDY    28  24  85 CALM      29.90R
SAINT CLOUD    CLOUDY    25  21  85 NE5       29.92R WCI  19
MINNEAPOLIS    CLOUDY    29  25  85 NE3       29.92R
$$

  *****  WEATHER ACROSS SOUTH DAKOTA  *****

CITY           SKY/WX    TMP DP  RH WIND       PRES   REMARKS
SIOUX FALLS    PTSUNNY   46  33  60 N17       29.88S
BROOKINGS      FAIR      40  33  76 N14       29.89R
WATERTOWN      CLOUDY    38  35  89 N15       29.88F
HURON          FAIR      42  34  73 N9        29.92R
SISSETON         N/A     38  33  82 N8        29.91R
ABERDEEN       CLOUDY    42  32  67 N7        29.93R
MITCHELL       CLOUDY    44  35  70 N10       29.92S
PIERRE         CLOUDY    41  32  70 N16       29.91F
MOBRIDGE       CLOUDY    42  32  67 W3        29.92R
RAPID CITY     CLOUDY    36  24  62 N21       29.93F
$$

  *****  SOME WEATHER IN NEARBY STATES *****

CITY           SKY/WX    TMP DP  RH WIND       PRES   REMARKS
GLASGOW MT     NOT AVBL
GREAT FALLS MT PTSUNNY   33  27  78 S6        30.01S
CHEYENNE WY    FAIR      40  17  39 E9        29.81F
SCOTTSBLUFF NE FAIR      43  29  57 E12       29.87F
OMAHA NE       PTSUNNY   51  25  36 N13       29.83F
DES MOINES IA  PTSUNNY   53  26  35 SW3       29.85R
DAVENPORT IA   FAIR      49  25  39 S7        29.88R
CHICAGO IL     FAIR      46  26  45 SW6       29.88S
EAU CLAIRE WI  FAIR      25  17  72 E9        29.91F WCI  15
LA CROSSE WI   FAIR      32  23  69 NE8       29.91R WCI  25
$$

  *****  SOME NATIONAL WEATHER *****

CITY           SKY/WX    TMP DP  RH WIND       PRES   REMARKS
LA GUARDIA NY  PTSUNNY   38  23  55 W16G29    29.99R
RALEIGH NC     FAIR      49  22  34 W9        30.20F
ATLANTA GA     PTSUNNY   52  28  39 VRB3      30.24S
NEW ORLEANS LA CLOUDY    56  42  59 VRB7      30.21S
OKLAHOMA CITY  FAIR      60  24  25 S22G32    29.92F
ALBUQUERQUE NM FAIR      41  15  35 S9        29.81F
SALT LAKE CITY FLURRIES  34  31  88 NW15      29.91R WCI  24
LOS ANGELES CA FAIR      65  51  60 SE8G17    29.69F
BOISE ID       FAIR      32  26  78 NW18      30.10F WCI  20
SEATTLE WA     CLOUDY    45  40  82 VRB5      30.32F
$$

*** WEATHER ACROSS MANITOBA...SASKATCHEWAN AND ONTARIO ***
                ***ONTARIO***

CITY           SKY/WX    TMP DP  RH WIND       PRES   REMARKS
GERALDTON      MOSUNNY   -2 -13  60 VRB2      30.12R
THUNDER BAY    FLURRIES  10   7  85 E6        30.10S WCI   1
SIOUX LOOKOUT  FLURRIES   0  -8  71 SE6       30.00S WCI -12
TORONTO        MOSUNNY   21   9  58 N12       30.05R WCI   9
BIG TROUT LK   CLEAR     -9 -17  70 S2        30.09S
PICKLE LAKE    MOSUNNY   -6 -15  65 SE8       30.05S WCI -21
DRYDEN         FLURRIES   1  -2  85 E7        29.96F WCI -11
KENORA         FLURRIES   7   1  78 SE9       29.90F WCI  -7
$$
                *** MANITOBA***

CITY           SKY/WX    TMP DP  RH WIND       PRES   REMARKS
BRANDON        PTSUNNY   27  21  80 CALM      29.84S
DAUPHIN        CLOUDY    21  18  86 SE5       29.81F WCI  15
ISLAND LAKE    PTCLDY    -2 -11  65 SE12G18   29.95F WCI -20
PILOT MOUND      N/A     28  21  74 W5          N/A  WCI  23
THE PAS        FLURRIES   9   3  78 SE9       29.78F WCI  -5
THOMPSON       MOCLDY    -4  -9  77 S5        29.86F WCI -15
WINNIPEG       CLOUDY    14  10  85 SE8       29.90S WCI   3
LYNN LAKE      CLOUDY    -2  -6  84 S3        29.75S
CHURCHILL      PTCLDY   -18 -24  76 S5        29.95F WCI -31
GILLAM         PTCLDY    -2 -13  60 S7        29.95F WCI -16
$$
                ***SASKATCHEWAN***

CITY           SKY/WX    TMP DP  RH WIND       PRES   REMARKS
ESTEVAN        PTSUNNY   36  19  51 W13       29.88F
KINDERSLEY     MOSUNNY   30  19  64 W20G28    29.88F WCI  18
LLOYDMINSTER   PTSUNNY   30  21  69 W16G23    29.80S WCI  19
PRINCE ALBERT  FLURRIES  30  27  86 W10       29.75S WCI  21
REGINA         MOSUNNY   34  21  60 W20       29.87R WCI  22
YORKTON        SUNNY     28  21  74 W14G20    29.78R WC



USA.gov is the U.S. government's official web portal to all federal, state and local government web resources and services.